Total_Precipitation_Accumulation
0.62 0.81 0.85 0.77 0.77 0.84 0.75 0.70 0.80 0.80 0.67 0.81 0.76 0.57 0.46 0.42 0.40 0.41 0.47 0.49 0.45 0.34 0.23 0.15 0.15 0.22 0.28 0.28 0.28 0.34 0.38 0.45 0.44 0.39 0.43 0.57 0.70 0.81 0.96 1.14 1.16 1.38 1.52 1.45
0.72 0.62 0.46 0.54 0.59 0.68 0.71 0.76 0.80 0.73 0.63 0.71 0.77 0.63 0.49 0.38 0.34 0.35 0.38 0.41 0.39 0.30 0.21 0.15 0.12 0.14 0.20 0.25 0.20 0.23 0.27 0.37 0.46 0.49 0.53 0.66 0.85 0.96 1.07 1.25 1.29 1.37 1.40 1.41
0.53 0.43 0.38 0.46 0.54 0.66 0.64 0.72 0.71 0.73 0.75 0.68 0.75 0.82 0.62 0.44 0.37 0.36 0.35 0.35 0.33 0.24 0.20 0.17 0.14 0.13 0.14 0.18 0.15 0.19 0.28 0.43 0.59 0.75 0.98 1.24 1.54 1.70 1.61 1.50 1.57 1.66 1.71 1.65
0.62 0.42 0.38 0.45 0.50 0.59 0.76 0.51 0.52 0.62 0.83 0.84 0.69 0.90 0.64 0.45 0.44 0.43 0.38 0.32 0.28 0.25 0.22 0.19 0.17 0.16 0.17 0.22 0.29 0.38 0.50 0.67 0.83 1.03 1.25 1.52 1.78 1.98 2.01 2.08 2.12 2.08 2.00 1.88
0.69 0.44 0.39 0.45 0.41 0.45 0.60 0.51 0.50 0.58 0.76 0.72 0.63 0.65 0.56 0.46 0.53 0.54 0.49 0.42 0.38 0.35 0.33 0.32 0.31 0.28 0.29 0.40 0.54 0.65 0.89 1.05 1.20 1.26 1.34 1.54 1.65 1.73 1.85 2.03 2.10 2.11 2.04 1.92
0.59 0.41 0.36 0.37 0.35 0.38 0.49 0.57 0.63 0.71 0.79 0.73 0.49 0.48 0.56 0.46 0.52 0.62 0.58 0.50 0.44 0.41 0.39 0.41 0.45 0.45 0.49 0.71 0.95 1.09 1.22 1.33 1.33 1.29 1.28 1.39 1.52 1.63 1.74 1.90 1.98 1.93 1.82 1.79
0.55 0.47 0.35 0.34 0.42 0.41 0.48 0.71 0.90 0.93 0.85 0.61 0.33 0.38 0.48 0.37 0.36 0.45 0.49 0.47 0.41 0.35 0.34 0.39 0.47 0.60 0.79 1.03 1.24 1.38 1.38 1.31 1.18 1.14 1.19 1.24 1.39 1.55 1.61 1.64 1.68 1.68 1.63 1.57
0.45 0.52 0.35 0.30 0.34 0.37 0.41 0.53 0.78 0.84 0.72 0.51 0.36 0.49 0.52 0.38 0.28 0.26 0.27 0.31 0.36 0.39 0.45 0.47 0.53 0.70 0.99 1.24 1.48 1.75 1.72 1.50 1.28 1.21 1.25 1.28 1.39 1.45 1.44 1.37 1.41 1.44 1.41 1.36
0.34 0.37 0.30 0.29 0.30 0.31 0.37 0.38 0.42 0.58 0.50 0.46 0.39 0.45 0.41 0.28 0.23 0.22 0.24 0.29 0.40 0.46 0.55 0.64 0.76 0.84 1.05 1.28 1.61 1.89 1.94 1.73 1.57 1.49 1.40 1.40 1.32 1.26 1.18 1.10 1.10 1.14 1.18 1.12
0.32 0.37 0.34 0.32 0.37 0.32 0.30 0.32 0.38 0.59 0.65 0.61 0.44 0.46 0.41 0.28 0.21 0.23 0.33 0.39 0.45 0.54 0.55 0.71 0.98 1.20 1.43 1.37 1.50 1.74 1.68 1.60 1.58 1.60 1.57 1.45 1.30 1.18 1.14 1.07 1.08 1.05 1.10 1.04
0.26 0.37 0.40 0.37 0.33 0.29 0.29 0.31 0.35 0.47 0.48 0.63 0.70 0.60 0.37 0.31 0.31 0.37 0.46 0.49 0.52 0.59 0.63 0.79 0.97 1.14 1.32 1.42 1.42 1.46 1.46 1.46 1.43 1.36 1.32 1.19 0.98 0.87 0.86 0.88 0.88 0.83 0.85 0.82
0.23 0.34 0.41 0.34 0.27 0.27 0.33 0.35 0.38 0.61 0.62 0.57 0.79 0.81 0.46 0.45 0.48 0.57 0.64 0.69 0.72 0.72 0.76 0.87 0.96 1.12 1.20 1.20 1.24 1.33 1.26 1.23 1.19 1.08 0.98 0.86 0.73 0.67 0.69 0.70 0.67 0.61 0.62 0.58
0.26 0.40 0.48 0.46 0.40 0.36 0.47 0.51 0.41 0.40 0.57 0.71 0.90 0.87 0.63 0.64 0.68 0.78 0.89 0.91 0.85 0.80 0.77 0.83 0.87 0.97 1.03 1.09 1.16 1.24 1.18 1.17 1.17 1.01 0.86 0.79 0.73 0.71 0.70 0.64 0.59 0.50 0.46 0.51
0.25 0.36 0.36 0.38 0.36 0.36 0.53 0.58 0.48 0.47 0.65 0.68 0.70 0.78 0.80 0.89 0.91 0.93 0.94 0.91 0.81 0.70 0.61 0.56 0.55 0.65 0.72 0.77 0.86 0.96 0.95 1.14 1.28 1.19 0.99 0.89 0.83 0.74 0.66 0.55 0.52 0.46 0.49 0.55
0.24 0.32 0.26 0.18 0.16 0.20 0.33 0.41 0.38 0.42 0.48 0.52 0.55 0.63 0.77 0.88 0.90 0.86 0.77 0.63 0.55 0.48 0.39 0.33 0.34 0.41 0.47 0.58 0.63 0.70 0.84 1.07 1.11 0.91 0.70 0.63 0.63 0.62 0.52 0.46 0.44 0.41 0.41 0.40
0.23 0.29 0.24 0.19 0.13 0.15 0.16 0.15 0.17 0.20 0.25 0.31 0.43 0.56 0.62 0.65 0.65 0.58 0.46 0.33 0.31 0.29 0.26 0.23 0.24 0.30 0.32 0.36 0.44 0.56 0.64 0.71 0.70 0.61 0.52 0.47 0.43 0.39 0.38 0.38 0.36 0.32 0.29 0.26
0.24 0.30 0.36 0.30 0.15 0.16 0.15 0.10 0.13 0.21 0.23 0.30 0.47 0.57 0.49 0.44 0.41 0.38 0.28 0.19 0.19 0.18 0.18 0.17 0.18 0.23 0.23 0.26 0.29 0.30 0.36 0.46 0.44 0.36 0.30 0.30 0.31 0.29 0.26 0.28 0.29 0.29 0.27 0.24
0.20 0.30 0.41 0.37 0.31 0.27 0.11 0.06 0.09 0.14 0.20 0.27 0.36 0.37 0.31 0.27 0.23 0.20 0.15 0.13 0.14 0.14 0.15 0.15 0.16 0.18 0.20 0.23 0.26 0.28 0.30 0.34 0.36 0.29 0.23 0.22 0.25 0.26 0.27 0.29 0.30 0.29 0.27 0.25
0.14 0.28 0.43 0.42 0.43 0.22 0.07 0.05 0.06 0.08 0.11 0.13 0.15 0.15 0.13 0.12 0.14 0.15 0.13 0.12 0.12 0.13 0.14 0.15 0.17 0.20 0.22 0.25 0.27 0.24 0.24 0.24 0.26 0.24 0.24 0.22 0.24 0.26 0.25 0.24 0.26 0.25 0.25 0.24
0.16 0.23 0.38 0.42 0.43 0.28 0.11 0.07 0.06 0.08 0.12 0.08 0.08 0.08 0.08 0.09 0.15 0.16 0.12 0.10 0.11 0.13 0.14 0.16 0.18 0.22 0.22 0.23 0.25 0.24 0.24 0.23 0.22 0.25 0.27 0.30 0.28 0.25 0.24 0.26 0.27 0.25 0.24 0.25
0.22 0.27 0.30 0.37 0.42 0.21 0.09 0.08 0.09 0.15 0.14 0.08 0.06 0.06 0.07 0.10 0.12 0.11 0.11 0.10 0.10 0.15 0.17 0.16 0.19 0.20 0.21 0.22 0.25 0.26 0.27 0.29 0.29 0.29 0.31 0.30 0.27 0.26 0.27 0.28 0.31 0.29 0.27 0.26
0.27 0.30 0.30 0.35 0.41 0.24 0.09 0.10 0.12 0.12 0.08 0.06 0.06 0.06 0.06 0.08 0.09 0.08 0.10 0.09 0.09 0.12 0.15 0.16 0.18 0.18 0.20 0.21 0.22 0.23 0.24 0.30 0.31 0.28 0.28 0.27 0.25 0.26 0.28 0.30 0.27 0.25 0.24 0.25
0.24 0.24 0.28 0.28 0.23 0.14 0.12 0.12 0.12 0.11 0.09 0.06 0.05 0.06 0.06 0.07 0.08 0.08 0.08 0.09 0.10 0.12 0.13 0.14 0.16 0.17 0.20 0.23 0.23 0.25 0.28 0.32 0.29 0.26 0.26 0.28 0.30 0.32 0.32 0.33 0.29 0.27 0.25 0.25
0.22 0.20 0.24 0.23 0.14 0.10 0.12 0.13 0.12 0.10 0.09 0.07 0.06 0.07 0.10 0.10 0.11 0.12 0.09 0.09 0.10 0.12 0.13 0.15 0.17 0.20 0.22 0.26 0.28 0.30 0.32 0.33 0.33 0.33 0.33 0.36 0.36 0.37 0.38 0.35 0.32 0.29 0.27 0.31
0.22 0.21 0.24 0.23 0.17 0.13 0.12 0.11 0.10 0.09 0.09 0.09 0.09 0.09 0.11 0.13 0.12 0.14 0.13 0.13 0.12 0.12 0.12 0.15 0.16 0.17 0.20 0.23 0.24 0.26 0.27 0.29 0.29 0.31 0.34 0.39 0.41 0.45 0.45 0.40 0.37 0.37 0.36 0.38
0.20 0.21 0.27 0.27 0.23 0.22 0.17 0.14 0.11 0.10 0.12 0.12 0.14 0.12 0.11 0.11 0.12 0.13 0.16 0.19 0.19 0.16 0.16 0.16 0.18 0.19 0.18 0.19 0.19 0.20 0.23 0.25 0.26 0.30 0.34 0.37 0.41 0.45 0.47 0.49 0.47 0.48 0.46 0.47